Location: Branche des Alpilles
(43.6087°N, 4.6976°E)
Time: 08:50:26
(UTC+00:00)

SL-16 R/B - Pass Details

Date: 30 November 2020
Orbit: 841 x 849 km, 71.0° (Epoch: 26 January)

Event Time Altitude Azimuth Distance (km) Brightness Sun altitude
Rises 17:03:10 0° 208° (SSW) 3,383 6.2 -10.2°
Reaches altitude 10° 17:05:37 10° 210° (SSW) 2,452 5.4 -10.6°
Maximum altitude 17:11:14 74° 296° (WNW) 876 2.4 -11.6°
Drops below altitude 10° 17:16:54 10° 22° (NNE) 2,467 4.3 -12.6°
Enters shadow 17:18:16 - 23° (NNE) 2,986 4.7 -12.8°
